This is the latest recevied weather packets stored in our database for station/object HOWARD. If no packets are shown the sender has not sent any weather packets the latest 10 day(s).
| Time | Temp. | Humidity | Pressure | Rain* | Wind** | Luminosity | Snow |
|---|---|---|---|---|---|---|---|
| 1777702303 | 6.67° C | 16% | 1015.2 hPa | 0 mm | - | - | - |
| 1777701705 | 6.67° C | 18% | 1015.3 hPa | 0 mm | - | - | - |
| 1777701103 | 6.11° C | 20% | 1015.3 hPa | 0 mm | - | - | - |
| 1777700503 | 6.11° C | 21% | 1015.2 hPa | 0 mm | - | - | - |
| 1777699903 | 6.11° C | 20% | 1015.4 hPa | 0 mm | - | - | - |
| 1777699303 | 6.11° C | 26% | 1015.4 hPa | 0 mm | - | - | - |
| 1777698703 | 6.67° C | 28% | 1015.5 hPa | 0 mm | - | - | - |
| 1777698103 | 7.22° C | 20% | 1015.4 hPa | 0 mm | - | - | - |
| 1777697503 | 6.67° C | 16% | 1015.4 hPa | 0 mm | - | - | - |
| 1777696903 | 6.11° C | 32% | 1015.3 hPa | 0 mm | - | - | - |
| 1777696303 | 6.67° C | 38% | 1016 hPa | 0 mm | - | - | - |
| 1777695703 | 6.67° C | 43% | 1016.2 hPa | 0 mm | - | - | - |
| 1777695103 | 6.67° C | 49% | 1016.2 hPa | 0 mm | - | - | - |
| 1777694503 | 6.67° C | 50% | 1016.2 hPa | 0 mm | - | - | - |
| 1777693903 | 6.67° C | 50% | 1016.1 hPa | 0 mm | - | - | - |
| 1777693303 | 6.67° C | 51% | 1016 hPa | 0 mm | - | - | - |
| 1777692703 | 7.22° C | 50% | 1016 hPa | 0 mm | - | - | - |
| 1777692103 | 7.22° C | 49% | 1015.9 hPa | 0 mm | - | - | - |
| 1777691503 | 7.22° C | 49% | 1015.8 hPa | 0 mm | - | - | - |
| 1777690903 | 7.22° C | 49% | 1015.7 hPa | 0 mm | - | - | - |
| 1777690303 | 7.22° C | 49% | 1015.5 hPa | 0 mm | - | - | - |
| 1777689703 | 7.22° C | 50% | 1015.6 hPa | 0 mm | - | - | - |
| 1777689103 | 7.78° C | - | 1015.7 hPa | 0 mm | - | - | - |
| 1777688503 | 7.78° C | 51% | 1015.7 hPa | 0 mm | - | - | - |
| 1777687903 | 7.78° C | 50% | 1015.8 hPa | 0 mm | - | - | - |
* Rain latest hour (hover to see other rain measurements)
** Current wind speed in m/s (hover to see current wind gust speed)